GW2521 Weather Reports


Display with metric or nautical units.
time (UTC)temp
F
wind
direction
speed
MPH
gust
MPH
rain 1hr
in
rain 24hr
in
rain mn
in
humidity
%
barometer
mb
20260507025441 48 133 1.0 1.0 0.00 0.02 0.02 62 1014.0
20260507024939 49 134 0.0 0.0 0.00 0.02 0.02 62 1013.9
20260507024437 49 190 2.0 2.0 0.00 0.02 0.02 61 1013.9
20260507023932 49 194 2.0 2.0 0.00 0.02 0.02 62 1014.1
20260507023429 49 217 1.0 1.0 0.00 0.02 0.02 60 1014.1
20260507022926 50 118 1.0 1.0 0.00 0.02 0.02 59 1014.0
20260507022424 50 199 0.0 0.0 0.00 0.02 0.02 60 1013.9
20260507021919 51 169 0.0 0.0 0.00 0.02 0.02 58 1013.7
20260507021414 51 154 0.0 0.0 0.00 0.02 0.02 57 1013.9
20260507020912 51 164 0.0 1.0 0.00 0.02 0.02 58 1013.9
20260507020408 51 156 1.0 1.0 0.00 0.02 0.02 57 1013.9
20260507015906 51 117 0.0 1.0 0.00 0.02 0.02 57 1014.0
20260507015404 51 248 2.0 2.0 0.00 0.02 0.02 55 1013.8
20260507014901 51 167 0.0 0.0 0.00 0.02 0.02 54 1013.8
20260507014356 51 229 1.0 1.0 0.00 0.02 0.02 54 1013.9
20260507013853 51 185 1.0 1.0 0.00 0.02 0.02 55 1014.0
20260507013350 51 174 0.0 0.0 0.00 0.02 0.02 55 1013.8
20260507012848 52 245 1.0 1.0 0.00 0.02 0.02 53 1013.5
20260507012343 52 181 1.0 1.0 0.00 0.02 0.02 53 1013.4
20260507011840 52 127 0.0 0.0 0.00 0.02 0.02 54 1013.7
20260507011337 52 174 1.0 1.0 0.00 0.02 0.02 51 1013.5
20260507010832 53 295 3.0 3.0 0.00 0.02 0.02 50 1013.6
20260507010328 52 259 2.0 2.0 0.00 0.02 0.02 50 1013.6
20260507005825 52 211 4.0 5.0 0.00 0.02 0.02 50 1013.4
20260507005322 52 40 0.0 1.0 0.00 0.02 0.02 52 1013.3
20260507004819 53 193 1.0 1.0 0.00 0.02 0.02 49 1012.9
20260507004316 53 179 1.0 1.0 0.00 0.02 0.02 53 1013.2
20260507003813 53 200 0.0 0.0 0.00 0.02 0.02 50 1012.9
20260507003308 53 43 0.0 1.0 0.00 0.02 0.02 49 1013.0
20260507002803 53 267 3.0 3.0 0.00 0.02 0.02 46 1012.9
20260507002300 54 23 1.0 1.0 0.00 0.02 0.02 45 1013.0
20260507001757 53 234 2.0 2.0 0.00 0.02 0.02 46 1013.0
20260507001254 54 279 3.0 3.0 0.00 0.02 0.02 45 1012.8
20260507000750 54 15 1.0 1.0 0.00 0.02 0.02 44 1012.9
20260507000246 54 204 3.0 5.0 0.00 0.02 0.02 45 1013.0
20260506235743 54 191 2.0 2.0 0.00 0.02 0.02 47 1012.8
20260506235238 55 275 5.0 6.0 0.00 0.02 0.02 44 1012.9
20260506234736 55 298 1.0 1.0 0.00 0.02 0.02 46 1013.0
20260506234233 55 307 1.0 2.0 0.00 0.02 0.02 45 1012.8
20260506233730 55 324 4.0 5.0 0.00 0.02 0.02 43 1013.1
20260506233227 55 270 3.0 3.0 0.00 0.02 0.02 43 1012.9
20260506232723 55 5 3.0 3.0 0.00 0.02 0.02 42 1013.0
20260506232218 55 291 3.0 3.0 0.00 0.02 0.02 41 1013.2
20260506231716 55 328 2.0 2.0 0.00 0.02 0.02 44 1013.1
20260506231214 55 320 3.0 3.0 0.00 0.02 0.02 43 1013.3
20260506230710 55 241 5.0 6.0 0.00 0.02 0.02 41 1013.0
20260506230208 55 204 2.0 2.0 0.00 0.02 0.02 43 1013.0
20260506225704 55 286 2.0 3.0 0.00 0.02 0.02 43 1013.1
20260506225201 55 18 1.0 2.0 0.00 0.02 0.02 41 1013.0
20260506224657 55 319 2.0 2.0 0.00 0.02 0.02 43 1013.2
20260506224154 55 197 2.0 2.0 0.00 0.02 0.02 43 1012.9
20260506223651 55 88 1.0 1.0 0.00 0.02 0.02 43 1013.2
20260506223146 55 339 1.0 1.0 0.00 0.02 0.02 42 1013.1
20260506222643 56 345 3.0 5.0 0.00 0.02 0.02 41 1013.1
20260506222139 56 306 2.0 3.0 0.00 0.02 0.02 45 1013.1
20260506221637 55 314 5.0 6.0 0.00 0.02 0.02 42 1013.1
20260506221135 55 293 3.0 3.0 0.00 0.02 0.02 39 1013.0
20260506220632 56 244 4.0 5.0 0.00 0.02 0.02 41 1012.9
20260506220127 56 334 3.0 3.0 0.00 0.02 0.02 43 1013.1
20260506215624 56 128 0.0 1.0 0.00 0.02 0.02 41 1012.9
20260506215119 56 322 5.0 6.0 0.00 0.02 0.02 41 1012.8
20260506214616 56 290 4.0 5.0 0.00 0.02 0.02 42 1012.9
20260506214114 56 349 6.0 7.0 0.00 0.02 0.02 39 1012.9
20260506213612 56 325 4.0 6.0 0.00 0.02 0.02 42 1012.9
20260506213109 56 250 4.0 5.0 0.00 0.02 0.02 40 1012.9
20260506212606 56 356 3.0 3.0 0.00 0.02 0.02 39 1013.0
20260506212101 56 334 6.0 7.0 0.00 0.02 0.02 41 1012.9
20260506211557 56 282 4.0 5.0 0.00 0.02 0.02 42 1013.2
20260506211054 56 281 3.0 3.0 0.00 0.02 0.02 45 1013.0
20260506210550 55 309 5.0 6.0 0.00 0.02 0.02 40 1013.1
20260506210047 55 215 4.0 5.0 0.00 0.02 0.02 39 1013.3
20260506205544 56 277 3.0 3.0 0.00 0.02 0.02 39 1013.1
20260506205039 56 198 2.0 2.0 0.00 0.02 0.02 42 1013.0
20260506204537 56 8 3.0 3.0 0.00 0.02 0.02 39 1013.0
20260506204034 57 285 3.0 3.0 0.00 0.02 0.02 37 1013.2
20260506203532 56 350 6.0 7.0 0.00 0.02 0.02 41 1013.2
20260506203029 55 349 5.0 6.0 0.00 0.02 0.02 41 1013.1
20260506202526 55 346 6.0 7.0 0.00 0.02 0.02 40 1012.9
20260506202022 55 340 5.0 7.0 0.00 0.02 0.02 44 1013.2
20260506201520 56 324 7.0 9.0 0.00 0.02 0.02 41 1013.0
20260506201016 56 193 5.0 6.0 0.00 0.02 0.02 43 1013.0
20260506200512 56 261 4.0 5.0 0.00 0.02 0.02 41 1013.0
20260506200010 55 347 2.0 2.0 0.00 0.02 0.02 46 1013.1
20260506195507 55 260 5.0 6.0 0.00 0.02 0.02 40 1013.2
20260506195003 55 350 6.0 8.0 0.00 0.02 0.02 42 1013.1
20260506194500 55 267 2.0 3.0 0.00 0.02 0.02 42 1013.4
20260506193956 55 296 4.0 5.0 0.00 0.02 0.02 39 1013.2
20260506193454 55 254 3.0 5.0 0.00 0.02 0.02 43 1013.4
20260506192950 55 346 4.0 5.0 0.00 0.02 0.02 40 1013.6
20260506192448 55 270 3.0 3.0 0.00 0.02 0.02 48 1013.4
20260506191944 55 253 4.0 5.0 0.00 0.02 0.02 41 1013.5
20260506191441 54 173 3.0 5.0 0.00 0.02 0.02 44 1013.5
20260506190937 54 287 2.0 2.0 0.00 0.02 0.02 47 1013.5
20260506190434 54 323 3.0 5.0 0.00 0.02 0.02 41 1013.5
20260506185931 54 301 3.0 5.0 0.00 0.02 0.02 45 1013.4
20260506185428 54 357 4.0 5.0 0.00 0.02 0.02 43 1013.4
20260506184925 54 317 2.0 2.0 0.00 0.02 0.02 40 1013.4
20260506184422 54 290 3.0 5.0 0.00 0.02 0.02 43 1013.5
20260506183919 53 351 5.0 6.0 0.00 0.02 0.02 44 1013.5
20260506183414 54 19 7.0 8.0 0.00 0.02 0.02 42 1013.4
20260506182912 54 323 1.0 2.0 0.00 0.02 0.02 47 1013.5
20260506182409 54 332 3.0 5.0 0.00 0.02 0.02 46 1013.5
20260506181906 54 352 3.0 3.0 0.00 0.02 0.02 45 1013.5
20260506181404 53 265 3.0 5.0 0.00 0.02 0.02 44 1013.6
20260506180901 53 327 5.0 6.0 0.00 0.02 0.02 43 1013.6
20260506180357 53 335 6.0 8.0 0.00 0.02 0.02 42 1013.7
20260506175854 54 287 3.0 5.0 0.00 0.02 0.02 40 1013.5
20260506175350 54 335 3.0 3.0 0.00 0.02 0.02 44 1013.3
20260506174847 54 17 1.0 1.0 0.00 0.02 0.02 41 1013.3
20260506174345 55 280 5.0 5.0 0.00 0.02 0.02 41 1013.4
20260506173843 55 29 3.0 3.0 0.00 0.02 0.02 39 1013.4
20260506173339 55 324 8.0 10.0 0.00 0.02 0.02 41 1013.3
20260506172836 54 335 1.0 2.0 0.00 0.02 0.02 43 1013.2
20260506172333 54 312 5.0 7.0 0.00 0.02 0.02 43 1013.2
20260506171830 54 324 2.0 2.0 0.00 0.02 0.02 42 1013.4
20260506171327 54 191 0.0 1.0 0.00 0.02 0.02 42 1013.5
20260506170825 54 351 6.0 7.0 0.00 0.02 0.02 41 1013.4
20260506170320 55 347 1.0 2.0 0.00 0.02 0.02 45 1013.3
20260506165820 55 295 3.0 3.0 0.00 0.02 0.02 43 1013.4
20260506165317 54 304 2.0 5.0 0.00 0.02 0.02 43 1013.5
20260506164813 54 356 8.0 8.0 0.00 0.02 0.02 40 1013.4
20260506164310 54 323 3.0 3.0 0.00 0.02 0.02 43 1013.4
20260506163807 54 244 1.0 2.0 0.00 0.02 0.02 45 1013.4
20260506163302 54 332 5.0 7.0 0.00 0.02 0.02 43 1013.6
20260506162758 54 37 2.0 3.0 0.00 0.02 0.02 41 1013.4
20260506162256 55 332 3.0 3.0 0.00 0.02 0.02 42 1013.4
20260506161753 55 304 5.0 6.0 0.00 0.02 0.02 41 1013.4
20260506161250 55 345 5.0 6.0 0.00 0.02 0.02 39 1013.2
20260506160748 55 19 1.0 1.0 0.00 0.02 0.02 43 1013.4
20260506160244 55 300 7.0 8.0 0.00 0.02 0.02 43 1013.4
20260506155743 55 244 5.0 7.0 0.00 0.02 0.02 45 1013.5
20260506155239 55 341 5.0 6.0 0.00 0.02 0.02 44 1013.3
20260506153347 54 336 4.0 6.0 0.00 0.02 0.02 44 1013.5
20260506152843 54 279 2.0 2.0 0.00 0.02 0.02 43 1013.4
20260506152341 54 249 3.0 3.0 0.00 0.02 0.02 47 1013.5
20260506151839 54 327 5.0 7.0 0.00 0.02 0.02 50 1013.5
20260506151335 53 358 4.0 5.0 0.00 0.02 0.02 45 1013.3
20260506150833 53 5 3.0 3.0 0.00 0.02 0.02 43 1013.2
20260506150329 53 339 1.0 2.0 0.00 0.02 0.02 48 1013.2
20260506145826 53 323 7.0 8.0 0.00 0.02 0.02 47 1013.3
20260506145322 54 145 1.0 1.0 0.00 0.02 0.02 46 1012.9
20260506144820 52 16 2.0 2.0 0.00 0.02 0.02 46 1013.2
20260506144317 52 315 7.0 7.0 0.00 0.02 0.02 48 1013.0
20260506143815 52 342 3.0 3.0 0.00 0.02 0.02 44 1013.1
20260506143312 52 2 3.0 5.0 0.00 0.02 0.02 45 1013.2
20260506142810 52 337 5.0 6.0 0.00 0.02 0.02 47 1013.0
20260506142308 52 301 4.0 5.0 0.00 0.02 0.02 50 1012.9
20260506141806 51 357 6.0 8.0 0.00 0.02 0.02 46 1013.0
20260506141304 51 322 5.0 7.0 0.00 0.02 0.02 52 1012.7
20260506140801 51 315 4.0 6.0 0.00 0.02 0.02 54 1012.8
20260506140258 50 34 1.0 2.0 0.00 0.02 0.02 50 1012.7
20260506135755 51 357 5.0 7.0 0.00 0.02 0.02 52 1012.7
20260506135251 50 334 7.0 8.0 0.00 0.02 0.02 54 1012.7
20260506134748 50 334 5.0 7.0 0.00 0.02 0.02 56 1012.6
20260506134244 50 350 5.0 6.0 0.00 0.02 0.02 54 1012.7
20260506133742 50 357 3.0 5.0 0.00 0.02 0.02 55 1012.7
20260506133238 50 39 2.0 2.0 0.00 0.02 0.02 55 1012.2
20260506132735 50 349 5.0 6.0 0.00 0.02 0.02 57 1012.7
20260506132232 49 47 2.0 2.0 0.00 0.02 0.02 58 1012.8
20260506131730 49 343 4.0 6.0 0.00 0.02 0.02 56 1012.9
20260506131226 49 39 0.0 0.0 0.00 0.02 0.02 62 1012.2
20260506130723 48 352 2.0 2.0 0.00 0.02 0.02 65 1012.1
20260506130220 48 3 2.0 2.0 0.00 0.02 0.02 65 1012.0
20260506125718 48 42 1.0 1.0 0.00 0.02 0.02 65 1012.0
20260506125215 47 5 3.0 3.0 0.00 0.02 0.02 66 1012.1
20260506124713 47 355 2.0 2.0 0.00 0.02 0.02 68 1012.0
20260506124211 47 31 1.0 2.0 0.00 0.02 0.02 69 1012.0
20260506123708 47 3 3.0 3.0 0.00 0.02 0.02 70 1011.9
20260506123207 47 22 2.0 2.0 0.00 0.02 0.02 70 1011.8
20260506122703 47 25 1.0 2.0 0.00 0.02 0.02 71 1011.8
20260506122201 46 34 1.0 2.0 0.00 0.02 0.02 74 1011.9
20260506121659 46 335 2.0 3.0 0.00 0.02 0.02 78 1011.7
20260506121155 46 357 3.0 3.0 0.00 0.02 0.02 78 1011.7
20260506120653 46 355 3.0 3.0 0.00 0.02 0.02 81 1011.5
20260506120150 45 336 2.0 3.0 0.00 0.02 0.02 83 1011.5
20260506115648 46 345 1.0 2.0 0.00 0.02 0.02 86 1011.4
20260506115146 45 355 1.0 2.0 0.00 0.02 0.02 87 1011.3
20260506114643 45 324 4.0 5.0 0.00 0.02 0.02 90 1011.4
20260506114141 44 24 1.0 2.0 0.00 0.02 0.02 93 1011.1
20260506113639 44 31 0.0 0.0 0.00 0.02 0.02 94 1011.1
20260506113136 44 39 0.0 0.0 0.00 0.02 0.02 94 1011.3
20260506112632 44 6 0.0 0.0 0.00 0.02 0.02 94 1011.1
20260506112130 44 2 0.0 0.0 0.00 0.02 0.02 94 1010.7
20260506111627 45 72 0.0 0.0 0.00 0.02 0.02 94 1010.7
20260506111125 45 22 0.0 0.0 0.00 0.02 0.02 94 1010.6
20260506110622 45 16 0.0 0.0 0.00 0.02 0.02 94 1010.9
20260506110119 45 16 0.0 0.0 0.00 0.02 0.02 94 1010.3
20260506105616 45 20 0.0 0.0 0.00 0.02 0.02 94 1010.3
20260506105113 45 1 0.0 0.0 0.00 0.02 0.02 94 1010.4
20260506104611 45 17 0.0 0.0 0.00 0.02 0.02 94 1010.4
20260506104108 45 15 0.0 0.0 0.00 0.02 0.02 94 1010.3
20260506103605 45 19 0.0 0.0 0.00 0.02 0.02 94 1010.2
20260506103102 45 21 0.0 0.0 0.00 0.02 0.02 94 1010.0
20260506102600 45 21 0.0 0.0 0.00 0.02 0.02 94 1010.0
20260506102058 45 27 0.0 0.0 0.00 0.02 0.02 95 1010.1
20260506101554 45 296 0.0 0.0 0.00 0.02 0.02 95 1010.2
20260506101051 45 20 0.0 0.0 0.00 0.02 0.02 95 1009.9
20260506100549 45 29 0.0 0.0 0.00 0.02 0.02 94 1009.8
20260506100047 44 343 0.0 0.0 0.00 0.02 0.02 95 1009.7
20260506095546 44 349 0.0 0.0 0.00 0.02 0.02 94 1009.7
20260506095042 44 32 0.0 1.0 0.00 0.02 0.02 94 1009.8
20260506094539 44 9 0.0 1.0 0.00 0.02 0.02 94 1009.8
20260506094037 44 344 0.0 0.0 0.00 0.02 0.02 94 1009.8
20260506093536 44 28 0.0 0.0 0.00 0.02 0.02 94 1010.1
20260506093033 44 309 0.0 0.0 0.00 0.02 0.02 94 1009.7
20260506092530 44 107 0.0 0.0 0.00 0.02 0.02 94 1010.0
20260506092027 44 160 0.0 0.0 0.00 0.02 0.02 94 1009.8
20260506091525 44 73 0.0 0.0 0.00 0.02 0.02 94 1009.8
20260506091022 44 321 0.0 0.0 0.00 0.02 0.02 94 1009.8
20260506090520 44 95 0.0 0.0 0.00 0.02 0.02 94 1009.9
20260506090016 44 170 0.0 0.0 0.00 0.02 0.02 94 1009.8
20260506085513 44 192 0.0 0.0 0.00 0.02 0.02 93 1009.6
20260506085009 44 137 0.0 0.0 0.00 0.02 0.02 94 1009.7
20260506084506 44 72 0.0 0.0 0.00 0.02 0.02 94 1009.7
20260506084002 44 27 0.0 0.0 0.00 0.02 0.02 94 1009.6
20260506083500 44 156 0.0 0.0 0.00 0.02 0.02 94 1009.4
20260506082957 44 42 0.0 0.0 0.00 0.02 0.02 94 1009.6
20260506082454 43 221 0.0 0.0 0.00 0.02 0.02 94 1009.4
20260506081949 43 96 0.0 0.0 0.00 0.02 0.02 94 1009.6
20260506081448 43 96 0.0 0.0 0.00 0.02 0.02 94 1009.5
20260506080945 43 129 0.0 0.0 0.00 0.02 0.02 94 1009.7
20260506080442 43 194 2.0 2.0 0.00 0.02 0.02 94 1009.8
20260506073426 43 42 0.0 0.0 0.00 0.02 0.02 93 1008.7
20260506072923 43 73 0.0 0.0 0.00 0.02 0.02 93 1009.2
20260506072420 43 146 0.0 0.0 0.00 0.02 0.02 93 1009.4
20260506071918 43 171 0.0 0.0 0.00 0.02 0.02 93 1009.1
20260506071416 44 192 0.0 0.0 0.00 0.02 0.02 94 1009.2
20260506070912 43 119 0.0 0.0 0.00 0.02 0.02 94 1009.2
20260506070409 43 112 0.0 0.0 0.07 0.02 0.02 94 1009.2
20260506062347 44 111 0.0 0.0 0.00 0.01 0.01 94 1009.7
20260506061842 44 89 0.0 0.0 0.00 0.01 0.01 93 1009.8
20260506061339 44 173 0.0 0.0 0.00 0.01 0.01 94 1009.8
20260506060837 44 138 0.0 0.0 0.00 0.01 0.01 94 1010.2
20260506060335 44 148 0.0 0.0 0.00 0.01 0.01 95 1010.1
20260506051307 44 82 0.0 0.0 0.00 0.00 0.00 95 1010.0
20260506050805 44 82 0.0 0.0 0.00 0.00 0.00 95 1010.1
20260506050302 44 82 0.0 0.0 0.00 0.00 0.00 95 1010.1
20260506044752 45 67 0.0 0.0 0.00 0.00 0.00 95 1009.6
20260506044250 45 68 0.0 0.0 0.00 0.00 0.00 95 1009.6
20260506043747 45 67 0.0 0.0 0.00 0.00 0.00 95 1009.7
20260506043244 45 67 0.0 0.0 0.00 0.00 0.00 95 1009.7
20260506042743 45 68 0.0 0.0 0.00 0.00 0.00 95 1009.6
20260506042241 45 67 0.0 0.0 0.00 0.00 0.00 95 1009.5
20260506041739 44 67 0.0 0.0 0.00 0.00 0.00 95 1009.4
20260506041236 44 67 0.0 0.0 0.00 0.00 0.00 95 1009.4
20260506040734 44 68 0.0 0.0 0.00 0.00 0.00 95 1009.6
20260506040230 44 68 0.0 0.0 0.00 0.00 0.00 95 1009.8
20260506035727 44 68 0.0 0.0 0.00 0.54 0.54 95 1009.5
20260506035224 44 68 0.0 0.0 0.00 0.54 0.54 95 1009.4
20260506034721 44 68 0.0 0.0 0.00 0.54 0.54 95 1009.7
20260506034218 44 68 0.0 0.0 0.00 0.54 0.54 95 1009.3
20260506033715 44 68 0.0 0.0 0.07 0.54 0.54 95 1009.7
20260506033212 44 67 0.0 0.0 0.07 0.54 0.54 95 1009.6
20260506032709 44 67 0.0 0.0 0.07 0.54 0.54 94 1009.6
20260506032206 44 67 0.0 0.0 0.00 0.53 0.53 94 1009.4
20260506031703 44 67 0.0 0.0 0.00 0.53 0.53 94 1009.6
20260506031200 44 67 0.0 0.0 0.00 0.53 0.53 94 1009.5
20260506030658 44 67 0.0 0.0 0.00 0.53 0.53 94 1009.6
20260506030155 44 67 0.0 0.0 0.00 0.53 0.53 94 1009.4